FLOCK 3P-81

Last updated on Wed Feb 14 2018 16:20:33 GMT+0000 (Coordinated Universal Time)

1 42043U 17008CZ 18044.82842349 .00001212 00000-0 53061-4 0 9991 2 42043 97.4683 110.5156 0009805 75.9296 284.3030 15.23935196 54509

Satellite not in orbit

FLOCK 3P-81